Location: Elstree
(51.6403°N, 0.2969°W)
Time: 20:57:24
(UTC+00:00)

Cosmos 2221 Rocket - Pass Details

Date: 03 March 2021
Orbit: 621 x 647 km, 82.5° (Epoch: 15 April)

Event Time Altitude Azimuth Distance (km) Brightness Sun altitude
Rises 20:16:43 0° 349° (NNW) 2,915 7.5 -23.9°
Reaches altitude 10° 20:18:57 10° 349° (N) 2,005 6.6 -24.3°
Enters shadow 20:23:10 80° 336° (NNW) 640 3.5 -24.9°
